This demonstration page uses our WeatherBlox Daily Observations layout. Learn more.

Left ArrowRight Arrow

Hourly Observations for April 20, 2020

Temp ( °F °C ) Dew Point ( °F °C ) Humidity (%) Winds ( mph kmh ) Pressure ( in mb ) Visibility ( mi km ) Precip ( " mm )
12:15 am 00:15 Cloudy 52 11 43 6 72 72 Calm 29.73 1007 10 16.0934 0 0
12:35 am 00:35 Cloudy 52 11 43 6 72 72 N 5 7 29.72 1007 10 16.0934 0 0
12:55 am 00:55 Cloudy 54 12 43 6 67 67 Calm 29.71 1006 10 16.0934 0 0
1:15 am 01:15 Cloudy 54 12 43 6 67 67 NNE 3 6 29.72 1007 10 16.0934 0 0
1:35 am 01:35 Cloudy 54 12 41 5 63 63 NNE 3 6 29.72 1007 10 16.0934 0 0
1:55 am 01:55 Mostly Cloudy 54 12 43 6 67 67 N 6 9 29.71 1006 10 16.0934 0 0
2:15 am 02:15 Partly Cloudy 52 11 43 6 72 72 N 3 6 29.71 1006 10 16.0934 0 0
2:35 am 02:35 Clear 52 11 43 6 72 72 NNE 3 6 29.7 1006 10 16.0934 0 0
2:55 am 02:55 Clear 52 11 43 6 72 72 NE 3 6 29.7 1006 10 16.0934 0 0
3:15 am 03:15 Clear 50 10 43 6 76 76 Calm 29.7 1006 10 16.0934 0 0
3:35 am 03:35 Mostly Cloudy 50 10 45 7 82 82 Calm 29.69 1005 10 16.0934 0 0
3:55 am 03:55 Cloudy 50 10 45 7 82 82 Calm 29.69 1005 10 16.0934 0 0
4:15 am 04:15 Cloudy 50 10 43 6 76 76 N 5 7 29.68 1005 10 16.0934 0 0
4:35 am 04:35 Cloudy 50 10 43 6 76 76 N 5 7 29.68 1005 10 16.0934 0 0
4:55 am 04:55 Cloudy 50 10 43 6 76 76 N 6 9 29.67 1005 10 16.0934 0 0
5:15 am 05:15 Mostly Cloudy 52 11 43 6 72 72 NNE 3 6 29.65 1004 10 16.0934 0 0
5:35 am 05:35 Cloudy 52 11 41 5 67 67 N 3 6 29.65 1004 10 16.0934 0 0
5:55 am 05:55 Cloudy 50 10 43 6 76 76 N 3 6 29.66 1004 10 16.0934 0 0
6:15 am 06:15 Mostly Cloudy 52 11 43 6 72 72 N 6 9 29.64 1004 10 16.0934 0 0
6:35 am 06:35 Cloudy 52 11 41 5 67 67 NNE 7 11 29.63 1004 10 16.0934 0 0
6:55 am 06:55 Cloudy 52 11 41 5 67 67 N 5 7 29.64 1004 10 16.0934 0 0
7:15 am 07:15 Cloudy 52 11 41 5 67 67 NNE 14 22 29.65 1004 10 16.0934 0 0
7:35 am 07:35 Cloudy 52 11 41 5 67 67 NNE 13 20 29.65 1004 10 16.0934 0 0
7:55 am 07:55 Mostly Cloudy 50 10 41 5 71 71 NE 10 17 29.66 1004 10 16.0934 0 0
8:15 am 08:15 Cloudy 50 10 41 5 71 71 NNE 8 13 29.68 1005 10 16.0934 0 0
8:35 am 08:35 Cloudy 50 10 41 5 71 71 NNE 9 15 29.68 1005 10 16.0934 0 0
8:55 am 08:55 Cloudy 50 10 41 5 71 71 NNE 9 15 29.68 1005 10 16.0934 0 0
9:15 am 09:15 Mostly Cloudy 50 10 41 5 71 71 NNE 9 15 29.68 1005 10 16.0934 0 0
9:35 am 09:35 Partly Cloudy 52 11 41 5 67 67 NNE 9 15 29.68 1005 10 16.0934 0 0
9:55 am 09:55 Partly Cloudy 52 11 41 5 67 67 NNE 9 15 29.67 1005 10 16.0934 0 0
10:15 am 10:15 Partly Cloudy 52 11 41 5 67 67 NNE 8 13 29.67 1005 10 16.0934 0 0
10:35 am 10:35 Partly Cloudy 52 11 41 5 67 67 NNE 10 17 29.68 1005 10 16.0934 0 0
10:55 am 10:55 Sunny 52 11 43 6 72 72 NNE 9 15 29.69 1006 10 16.0934 0 0
11:15 am 11:15 Sunny 52 11 43 6 72 72 NNE 8 13 29.69 1006 10 16.0934 0 0
11:35 am 11:35 Sunny 54 12 43 6 67 67 NNE 6 9 29.69 1006 10 16.0934 0 0
11:55 am 11:55 Sunny 54 12 43 6 67 67 NE 6 9 29.7 1006 10 16.0934 0 0
12:15 pm 12:15 Sunny 54 12 43 6 67 67 N 8 13 29.7 1006 10 16.0934 0 0
12:35 pm 12:35 Partly Cloudy 54 12 43 6 67 67 NE 6 9 29.69 1006 10 16.0934 0 0
12:55 pm 12:55 Mostly Cloudy 54 12 43 6 67 67 N 7 11 29.69 1006 10 16.0934 0 0
1:15 pm 13:15 Partly Cloudy 55 13 45 7 67 67 N 7 11 29.68 1005 10 16.0934 0 0
1:35 pm 13:35 Sunny 55 13 43 6 63 63 NE 7 11 29.67 1005 10 16.0934 0 0
1:55 pm 13:55 Sunny 57 14 43 6 59 59 NE 5 7 29.67 1005 10 16.0934 0 0
2:15 pm 14:15 Sunny 57 14 43 6 59 59 NE 5 7 29.67 1005 10 16.0934 0 0
2:35 pm 14:35 Partly Cloudy 59 15 43 6 55 55 Calm 29.66 1004 10 16.0934 0 0
2:55 pm 14:55 Partly Cloudy 59 15 43 6 55 55 NE 3 6 29.66 1004 10 16.0934 0 0
3:15 pm 15:15 Mostly Cloudy 59 15 43 6 55 55 N 5 7 29.66 1004 10 16.0934 0 0
3:35 pm 15:35 Partly Cloudy 59 15 43 6 55 55 N 6 9 29.65 1004 10 16.0934 0 0
3:55 pm 15:55 Partly Cloudy 59 15 43 6 55 55 Calm 29.65 1004 10 16.0934 0 0
4:15 pm 16:15 Sunny 61 16 43 6 52 52 Calm 29.65 1004 10 16.0934 0 0
5:15 pm 17:15 Mostly Cloudy 61 16 43 6 52 52 Calm 29.64 1004 10 16.0934 0 0
5:35 pm 17:35 Mostly Cloudy 63 17 43 6 49 49 Calm 29.64 1004 10 16.0934 0 0
6:15 pm 18:15 Sunny 63 17 41 5 45 45 W 7 11 29.64 1004 10 16.0934 0 0
6:35 pm 18:35 Sunny 63 17 41 5 45 45 W 5 7 29.64 1004 10 16.0934 0 0
6:55 pm 18:55 Sunny 63 17 41 5 45 45 Calm 29.64 1004 10 16.0934 0 0
7:15 pm 19:15 Sunny 61 16 41 5 48 48 ENE 5 7 29.64 1004 10 16.0934 0 0
7:35 pm 19:35 Sunny 61 16 41 5 48 48 SE 7 11 29.65 1004 10 16.0934 0 0
7:55 pm 19:55 Clear 61 16 41 5 48 48 SE 5 7 29.65 1004 10 16.0934 0 0
8:15 pm 20:15 Clear 59 15 41 5 51 51 S 5 7 29.66 1004 10 16.0934 0 0
8:35 pm 20:35 Mostly Cloudy 57 14 43 6 59 59 S 7 11 29.67 1005 10 16.0934 0 0
8:55 pm 20:55 Partly Cloudy 55 13 43 6 63 63 S 6 9 29.68 1005 10 16.0934 0 0
9:15 pm 21:15 Clear 54 12 43 6 67 67 SSW 6 9 29.69 1006 10 16.0934 0 0
9:35 pm 21:35 Clear 55 13 43 6 63 63 S 6 9 29.7 1006 10 16.0934 0 0
9:55 pm 21:55 Partly Cloudy 54 12 43 6 67 67 S 3 6 29.7 1006 10 16.0934 0 0
10:15 pm 22:15 Mostly Cloudy 52 11 43 6 72 72 SSW 5 7 29.71 1006 10 16.0934 0 0
10:35 pm 22:35 Mostly Cloudy 54 12 43 6 67 67 SSW 7 11 29.71 1006 10 16.0934 0 0
10:55 pm 22:55 Partly Cloudy 52 11 43 6 72 72 SSW 6 9 29.71 1006 10 16.0934 0 0
11:15 pm 23:15 Clear 52 11 43 6 72 72 SSW 6 9 29.71 1006 10 16.0934 0 0
11:35 pm 23:35 Clear 50 10 43 6 76 76 SSW 8 13 29.72 1006 10 16.0934 0 0
11:55 pm 23:55 Clear 50 10 43 6 76 76 SSW 6 9 29.72 1006 10 16.0934 0 0

Powered by AerisWeather